Hourly Weather Bolshie Ozerki

Today, 20 June, Sunday

Time Temperature Precipitation Wind Pressure Humidity
00:00 +18°C° 0 mm 1 mps 749 mmHg 78%
01:00 +17°C° 0 mm 2 mps 749 mmHg 81%
02:00 +16°C° 0 mm 2 mps 749 mmHg 83%
03:00 +16°C° 0 mm 2 mps 749 mmHg 86%
04:00 +17°C° 0 mm 2 mps 749 mmHg 84%
05:00 +19°C° 0 mm 1 mps 749 mmHg 82%
06:00 +20°C° 0 mm 1 mps 749 mmHg 80%
07:00 +22°C° 0 mm 1 mps 749 mmHg 74%
08:00 +24°C° 0 mm 1 mps 749 mmHg 68%
09:00 +25°C° 0 mm 2 mps 749 mmHg 62%
10:00 +26°C° 0 mm 1 mps 749 mmHg 58%
11:00 +27°C° 0 mm 1 mps 749 mmHg 54%
12:00 +28°C° 0 mm 1 mps 749 mmHg 51%
13:00 +28°C° 0 mm 1 mps 749 mmHg 50%
14:00 +29°C° 0 mm 2 mps 748 mmHg 49%
15:00 +29°C° 0 mm 2 mps 748 mmHg 49%
16:00 +29°C° 0 mm 1 mps 748 mmHg 54%
17:00 +29°C° 0 mm 1 mps 748 mmHg 58%
18:00 +28°C° 0 mm 1 mps 747 mmHg 63%
19:00 +26°C° 0 mm 1 mps 748 mmHg 67%
20:00 +24°C° 0 mm 1 mps 748 mmHg 71%
21:00 +22°C° 0 mm 1 mps 748 mmHg 75%
22:00 +22°C° 0 mm 1 mps 748 mmHg 77%
23:00 +21°C° 0 mm 1 mps 748 mmHg 79%

Tomorrow, 21 June, Monday

Time Temperature Precipitation Wind Pressure Humidity
00:00 +21°C° 0 mm 1 mps 748 mmHg 81%
01:00 +21°C° 0 mm 1 mps 748 mmHg 81%
02:00 +20°C° 0 mm 1 mps 748 mmHg 82%
03:00 +20°C° 0 mm 1 mps 748 mmHg 82%
04:00 +21°C° 0 mm 1 mps 748 mmHg 79%
05:00 +22°C° 0 mm 1 mps 748 mmHg 77%
06:00 +23°C° 0 mm 1 mps 748 mmHg 75%
07:00 +24°C° 0 mm 1 mps 748 mmHg 70%
08:00 +26°C° 0 mm 1 mps 748 mmHg 66%
09:00 +27°C° 0 mm 1 mps 749 mmHg 61%
10:00 +28°C° 0 mm 1 mps 748 mmHg 58%
11:00 +29°C° 0 mm 1 mps 748 mmHg 55%
12:00 +30°C° 0 mm 1 mps 748 mmHg 52%
13:00 +30°C° 0 mm 1 mps 748 mmHg 50%
14:00 +28°C° 0 mm 0 mps 748 mmHg 48%
15:00 +29°C° 0 mm 0 mps 748 mmHg 47%
16:00 +28°C° 0 mm 0 mps 748 mmHg 51%
17:00 +28°C° 0 mm 0 mps 748 mmHg 56%
18:00 +27°C° 0 mm 0 mps 747 mmHg 61%
19:00 +26°C° 0 mm 0 mps 747 mmHg 63%
20:00 +24°C° 0 mm 0 mps 748 mmHg 64%
21:00 +23°C° 0 mm 0 mps 748 mmHg 66%
22:00 +24°C° 0 mm 1 mps 748 mmHg 68%
23:00 +24°C° 0 mm 1 mps 748 mmHg 70%

Day after tomorrow, 22 June, Tuesday

Time Temperature Precipitation Wind Pressure Humidity
00:00 +23°C° 0 mm 1 mps 748 mmHg 72%
01:00 +23°C° 0 mm 1 mps 748 mmHg 74%
02:00 +22°C° 0 mm 1 mps 748 mmHg 75%
03:00 +22°C° 0 mm 1 mps 748 mmHg 77%
04:00 +23°C° 0 mm 1 mps 748 mmHg 76%
05:00 +24°C° 0 mm 1 mps 748 mmHg 75%
06:00 +25°C° 0 mm 1 mps 748 mmHg 74%
07:00 +26°C° 0 mm 1 mps 748 mmHg 68%
08:00 +28°C° 0 mm 1 mps 748 mmHg 63%
09:00 +29°C° 0 mm 2 mps 748 mmHg 57%
10:00 +30°C° 0 mm 2 mps 748 mmHg 54%
11:00 +30°C° 0 mm 2 mps 748 mmHg 51%
12:00 +31°C° 0 mm 2 mps 748 mmHg 48%
13:00 +32°C° 0 mm 1 mps 748 mmHg 47%
14:00 +32°C° 0 mm 1 mps 748 mmHg 46%
15:00 +32°C° 0 mm 1 mps 748 mmHg 45%
16:00 +32°C° 0 mm 1 mps 748 mmHg 49%
17:00 +31°C° 0 mm 1 mps 747 mmHg 54%
18:00 +31°C° 0 mm 1 mps 747 mmHg 59%
19:00 +29°C° 0 mm 1 mps 747 mmHg 60%
20:00 +25°C° 0 mm 0 mps 747 mmHg 62%
21:00 +24°C° 0 mm 0 mps 747 mmHg 63%
22:00 +23°C° 0 mm 0 mps 747 mmHg 64%
23:00 +25°C° 0 mm 1 mps 747 mmHg 66%

23 June, Wednesday

Time Temperature Precipitation Wind Pressure Humidity
00:00 +24°C° 0 mm 1 mps 747 mmHg 67%
01:00 +24°C° 0 mm 1 mps 747 mmHg 68%
02:00 +23°C° 0 mm 1 mps 747 mmHg 69%
03:00 +23°C° 0 mm 1 mps 748 mmHg 70%
04:00 +24°C° 0 mm 1 mps 748 mmHg 70%
05:00 +25°C° 0 mm 1 mps 748 mmHg 69%
06:00 +26°C° 0 mm 1 mps 748 mmHg 68%
07:00 +27°C° 0 mm 1 mps 748 mmHg 64%
08:00 +28°C° 0 mm 1 mps 748 mmHg 59%
09:00 +30°C° 0 mm 1 mps 748 mmHg 55%
10:00 +31°C° 0 mm 1 mps 748 mmHg 52%
11:00 +32°C° 0 mm 1 mps 748 mmHg 48%
12:00 +33°C° 0 mm 1 mps 748 mmHg 45%
13:00 +33°C° 0 mm 1 mps 748 mmHg 44%
14:00 +33°C° 0 mm 1 mps 747 mmHg 42%
15:00 +33°C° 0 mm 1 mps 747 mmHg 41%
16:00 +32°C° 0 mm 2 mps 747 mmHg 48%
17:00 +31°C° 0 mm 2 mps 747 mmHg 55%
18:00 +29°C° 0 mm 2 mps 747 mmHg 62%
19:00 +28°C° 0 mm 2 mps 747 mmHg 63%
20:00 +27°C° 0 mm 1 mps 747 mmHg 63%
21:00 +26°C° 0 mm 1 mps 747 mmHg 64%
22:00 +25°C° 0 mm 1 mps 747 mmHg 66%
23:00 +24°C° 0 mm 1 mps 747 mmHg 68%

24 June, Thursday

Time Temperature Precipitation Wind Pressure Humidity
00:00 +22°C° 0 mm 0 mps 747 mmHg 71%
01:00 +24°C° 0 mm 1 mps 747 mmHg 71%
02:00 +23°C° 0 mm 1 mps 747 mmHg 72%
03:00 +23°C° 0 mm 1 mps 747 mmHg 72%
04:00 +24°C° 0 mm 1 mps 747 mmHg 72%
05:00 +25°C° 0 mm 1 mps 747 mmHg 72%
06:00 +25°C° 0 mm 1 mps 747 mmHg 71%
07:00 +27°C° 0 mm 1 mps 747 mmHg 67%
08:00 +28°C° 0 mm 1 mps 747 mmHg 62%
09:00 +30°C° 0 mm 1 mps 747 mmHg 58%
10:00 +30°C° 0 mm 1 mps 747 mmHg 54%
11:00 +31°C° 0 mm 1 mps 746 mmHg 50%
12:00 +32°C° 0 mm 2 mps 746 mmHg 46%
13:00 +32°C° 0 mm 1 mps 746 mmHg 44%
14:00 +32°C° 0 mm 1 mps 746 mmHg 43%
15:00 +33°C° 0 mm 1 mps 746 mmHg 42%
16:00 +32°C° 0 mm 1 mps 746 mmHg 48%
17:00 +31°C° 0 mm 1 mps 745 mmHg 54%
18:00 +30°C° 0 mm 1 mps 745 mmHg 60%
19:00 +29°C° 0 mm 1 mps 745 mmHg 62%
20:00 +28°C° 0 mm 1 mps 745 mmHg 63%
21:00 +26°C° 0 mm 1 mps 745 mmHg 65%
22:00 +26°C° 0 mm 1 mps 744 mmHg 68%
23:00 +25°C° 0 mm 2 mps 744 mmHg 71%

25 June, Friday

Time Temperature Precipitation Wind Pressure Humidity
00:00 +24°C° 0 mm 2 mps 744 mmHg 74%
01:00 +24°C° 0 mm 2 mps 744 mmHg 76%
02:00 +23°C° 0 mm 2 mps 744 mmHg 79%
03:00 +23°C° 0 mm 2 mps 744 mmHg 81%
04:00 +24°C° 0 mm 2 mps 744 mmHg 79%
05:00 +25°C° 0 mm 1 mps 744 mmHg 78%
06:00 +26°C° 0 mm 1 mps 744 mmHg 76%
07:00 +27°C° 0 mm 1 mps 744 mmHg 70%
08:00 +29°C° 0 mm 1 mps 744 mmHg 64%
09:00 +30°C° 0 mm 1 mps 744 mmHg 58%
10:00 +31°C° 0 mm 1 mps 744 mmHg 54%
11:00 +32°C° 0 mm 1 mps 744 mmHg 50%
12:00 +33°C° 0 mm 1 mps 744 mmHg 46%
13:00 +33°C° 0 mm 1 mps 743 mmHg 45%
14:00 +34°C° 0 mm 2 mps 743 mmHg 44%
15:00 +34°C° 0 mm 2 mps 743 mmHg 43%
16:00 +34°C° 0.1 mm 2 mps 743 mmHg 49%
17:00 +32°C° 0.1 mm 2 mps 742 mmHg 54%
18:00 +31°C° 0.1 mm 2 mps 742 mmHg 60%
19:00 +29°C° 0.7 mm 2 mps 742 mmHg 61%
20:00 +27°C° 0.7 mm 1 mps 742 mmHg 62%
21:00 +24°C° 0.7 mm 1 mps 742 mmHg 62%
22:00 +24°C° 0.1 mm 1 mps 742 mmHg 62%
23:00 +24°C° 0.1 mm 1 mps 742 mmHg 62%
Show more